Flag for Switzerland Weather past 2 weeks in Kloten, Zurich, Switzerland

Now
72 °F

Passing clouds.


Feels Like: 75 °F
Forecast: 47 / 75 °F
Wind: 5 mph from Northwest

Location: Zurich-Kloten

Current Time: Sep 16, 2014 at 4:04:29 PM

Latest Report: Sep 16, 2014 at 3:20 PM


Visibility: N/A

Pressure: 29.98 "Hg

Humidity: 65%

Dew point: 59 °F

Location of KlotenLocation

Historic Weather in Kloten — Graph

°F

Kloten temperature yesterday

Maximum temperature yesterday: 72 °F (at 3:50 PM)
Minimum temperature yesterday: 50 °F (at 3:50 AM)
Average temperature yesterday: 61 °F

Past Weeks' High & Low Weather Summary

 TemperatureHumidityPressure
High81 °F (Sep 8, 2:50 PM)100% (Sep 2, 3:50 AM)30.18 "Hg (Sep 2, 3:50 AM)
Low48 °F (Sep 2, 4:50 AM)46% (Sep 11, 3:50 PM)29.89 "Hg (Sep 6, 5:20 PM)
Average62 °F81%30.04 "Hg
* Reported Sep 1 2:20 PM — Sep 16 2:50 PM, Kloten, Weather by CustomWeather, © 2014

Note: Actual official high and low records may vary slightly from our data, if they occured in-between our weather recording intervals... More about our weather records

Advertising

Kloten weather history for previous 24 hours

 ConditionsComfort  
Time TempWeatherWind HumidityBarometerVisibility
2:50 PM
Sep 16
72 °FPassing clouds.6 mph65%29.98 "HgN/A
2:20 PM72 °FPassing clouds.6 mph69%29.98 "HgN/A
1:50 PM70 °FPassing clouds.7 mph69%29.98 "HgN/A
1:20 PM68 °FPassing clouds.6 mph69%30.01 "HgN/A
12:50 PM66 °FPassing clouds.6 mph73%30.01 "Hg6 mi
12:20 PM64 °FPassing clouds.6 mph78%30.01 "Hg4 mi
11:50 AM63 °FScattered clouds.6 mph83%30.04 "Hg4 mi
11:20 AM61 °FFog.6 mph94%30.04 "Hg2 mi
10:50 AM59 °FFog.3 mph94%30.04 "Hg2 mi
10:20 AM57 °FFog.2 mph94%30.04 "Hg1 mi
9:50 AM57 °FFog.2 mph100%30.04 "Hg1 mi
9:20 AM57 °FDense fog.2 mph100%30.04 "Hg1 mi
8:50 AM57 °FDense fog.2 mph100%30.04 "Hg0 mi
8:20 AM57 °FDense fog.1 mph100%30.01 "Hg0 mi
7:50 AM57 °FDense fog.No wind100%30.01 "Hg0 mi
7:20 AM55 °FFog.1 mph100%30.01 "Hg0 mi
6:50 AM55 °FDense fog.No wind100%30.01 "Hg0 mi
6:20 AM55 °FPassing clouds.2 mph100%30.01 "Hg0 mi
5:50 AM54 °FPassing clouds.No wind100%30.01 "Hg0 mi
5:20 AM54 °FPassing clouds.1 mph100%30.01 "Hg1 mi
4:50 AM54 °FLight fog.1 mph100%30.01 "Hg1 mi
4:20 AM54 °FLight fog.1 mph100%30.01 "Hg3 mi
3:50 AM55 °FLight fog.2 mph100%30.01 "Hg3 mi
3:20 AM55 °FFog.1 mph100%30.01 "Hg4 mi
2:50 AM55 °FFog.2 mph100%30.01 "Hg4 mi
1:50 AM57 °FPassing clouds.3 mph100%30.01 "HgN/A
1:20 AM55 °FClear.5 mph100%30.01 "Hg10 mi
12:50 AM57 °FPassing clouds.2 mph100%30.01 "HgN/A
12:20 AM59 °FPartly cloudy.1 mph94%30.01 "HgN/A
11:50 PM
Sep 15
59 °FPassing clouds.2 mph94%30.01 "HgN/A
11:20 PM61 °FPassing clouds.1 mph94%30.01 "HgN/A
10:50 PM59 °FPassing clouds.1 mph94%30.01 "HgN/A
10:20 PM59 °FPassing clouds.3 mph94%29.98 "HgN/A
9:50 PM61 °FClear.2 mph94%29.98 "Hg10 mi
9:20 PM61 °FClear.3 mph88%29.98 "Hg10 mi
8:50 PM63 °FClear.5 mph88%29.98 "Hg10 mi
8:20 PM66 °FSunny.1 mph73%29.98 "Hg10 mi
7:50 PM66 °FSunny.3 mph73%29.98 "Hg10 mi
7:20 PM68 °FPassing clouds.3 mph73%29.98 "HgN/A
6:50 PM70 °FPartly sunny.5 mph69%29.95 "HgN/A
6:20 PM70 °FPartly sunny.3 mph69%29.95 "HgN/A
5:50 PM70 °FPartly sunny.1 mph64%29.98 "HgN/A
5:20 PM70 °FPartly sunny.1 mph64%29.98 "HgN/A
4:50 PM72 °FPartly sunny.1 mph61%29.98 "HgN/A
4:20 PM72 °FPartly sunny.3 mph65%29.98 "HgN/A
Weather by CustomWeather, © 2014

See weather overviewHow to use our weather pages